Location: Unspecified
(37.2150°N, 0.0000°E)
Time: 08:22:51
(UTC+00:00)

ISS - Visible Passes

Search period start: 20 October 2019 00:00
Search period end: 30 October 2019 00:00
Orbit: 411 x 421 km, 51.6° (Epoch: 20 October)

Date Brightness Start Highest point End Pass type
(mag) Time Alt. Az. Time Alt. Az. Time Alt. Az.
21 Oct -0.6 05:35:40 10° SSE 05:37:23 13° SE 05:39:06 10° E visible
23 Oct -2.4 05:33:28 10° SSW 05:36:39 41° SE 05:39:50 10° ENE visible
24 Oct -1.4 04:45:30 10° S 04:48:10 22° SE 04:50:50 10° ENE visible
25 Oct -0.7 03:59:27 12° SE 03:59:44 12° SE 04:01:08 10° ESE visible
25 Oct -3.7 05:32:45 10° WSW 05:36:04 60° NW 05:39:24 10° NE visible
26 Oct -3.6 04:46:39 47° SSW 04:47:27 72° SE 04:50:49 10° NE visible
27 Oct -1.1 04:00:39 21° ENE 04:00:39 21° ENE 04:02:01 10° ENE visible
27 Oct -2.4 05:33:35 14° WNW 05:35:40 24° NNW 05:38:29 10° NNE visible
28 Oct -2.8 04:47:24 35° NNW 04:47:24 35° NNW 04:50:05 10° NE visible
29 Oct -0.7 04:01:05 13° NE 04:01:05 13° NE 04:01:34 10° NE visible
29 Oct -1.5 05:34:00 11° NW 05:35:27 13° NNW 05:37:06 10° N visible
